Regional Weather Roundup
Issued by NWS

Home | Current Version | Previous Version | Graphics & Text | Print | Product List | Glossary On
Versions: 1 2 3 4 5 6 7 8 9 10 11 12 13 14 15 16 17 18 19 20 21 22 23 24 25 26 27 28 29 30 31 32 33 34 35 36 37 38 39 40 41 42 43 44 45 46 47 48 49 50
000
ASUS43 KLMK 070702
RWRKY
KENTUCKY REGIONAL WEATHER ROUNDUP
NATIONAL WEATHER SERVICE LOUISVILLE KY
200 AM EST WED DEC 07 2016

NOTE "FAIR" INDICATES FEW OR NO CLOUDS BELOW 12,000 FEET
WITH NO SIGNIFICANT WEATHER AND/OR OBSTRUCTIONS TO VISIBILITY.

KYZ001>023-026-027-061>063-070>075-070800-
WESTERN AND SOUTH CENTRAL KENTUCKY

CITY           SKY/WX    TMP DP  RH WIND       PRES   REMARKS
PADUCAH        CLOUDY    36  33  89 CALM      30.10S
HENDERSON      NOT AVBL
OWENSBORO      NOT AVBL
HOPKINSVILLE   MOCLDY    38  36  92 N5        30.09S WCI  34
BOWLING GREEN  CLOUDY    39  33  79 CALM      30.11R
GLASGOW        NOT AVBL
$$

KYZ024-025-028>034-038-045-046-053-070800-
NORTH CENTRAL KENTUCKY

CITY           SKY/WX    TMP DP  RH WIND       PRES   REMARKS
LOUISVILLE/SDF NOT AVBL
LOUISVILLE/LOU CLOUDY    37  30  75 NW6       30.11R WCI  32
FORT KNOX      MOCLDY    35  32  90 NW6       30.07S WCI  30
$$

KYZ035>037-039>044-047>052-055>060-089>105-070800-
NORTHEAST KENTUCKY

CITY           SKY/WX    TMP DP  RH WIND       PRES   REMARKS
LEXINGTON      NOT AVBL
COVINGTON      CLOUDY    35  29  78 NW10      30.06R WCI  27
FRANKFORT      MOCLDY    35  30  82 W3        30.08R
$$

KYZ054-064>069-076>088-106>120-070800-
SOUTHEAST KENTUCKY

CITY           SKY/WX    TMP DP  RH WIND       PRES   REMARKS
JACKSON        CLOUDY    40  34  79 W3        30.03R
LONDON         CLOUDY    41  34  76 NW6       30.05R
SOMERSET       NOT AVBL
MIDDLESBORO    NOT AVBL
MONTICELLO     NOT AVBL
$$




USA.gov is the U.S. government's official web portal to all federal, state and local government web resources and services.